Regional Weather Roundup
Issued by NWS

Home | Current Version | Previous Version | Graphics & Text | Print | Product List | Glossary On
Versions: 1 2 3 4 5 6 7 8 9 10 11 12 13 14 15 16 17 18 19 20 21 22 23 24 25 26 27 28 29 30 31 32 33 34 35 36 37 38 39 40 41 42 43 44 45 46 47 48 49 50
000
ASUS43 KDTX 290310
RWRMI
MICHIGAN HOURLY REGIONAL WEATHER ROUNDUP
NATIONAL WEATHER SERVICE DETROIT/PONTIAC MI
1100 PM EDT FRI APR 28 2017

NOTE: "FAIR" INDICATES FEW OR NO CLOUDS BELOW 12,000 FEET WITH NO
SIGNIFICANT WEATHER AND/OR OBSTRUCTION TO VISIBILITY.

MIZ047>049-052>055-059>063-066>070-074>076-081>083-290400-
SOUTHEAST LOWER MICHIGAN

CITY           SKY/WX    TMP DP  RH WIND       PRES   REMARKS
ADRIAN         CLOUDY    53  51  93 CALM      29.97S
ALMA           CLOUDY    56  44  65 NW7       29.97R
ANN ARBOR      CLOUDY    54  50  86 S6        29.96R
BAD AXE        CLOUDY    44  39  83 N10       29.98R
CARO           CLOUDY    58  44  60 W5        29.96R
DETROIT CITY   CLOUDY    57  49  74 S6        29.98R
DETROIT        CLOUDY    56  49  77 S8        29.99R
FLINT          CLOUDY    58  47  66 S8        29.96R
GROSSE ILE     CLOUDY    56  52  86 S7        29.98R
HILLSDALE      CLOUDY    52  46  82 CALM      29.96S
HOWELL         CLOUDY    56  46  70 SW5       29.97R

CITY           SKY/WX    TMP DP  RH WIND       PRES   REMARKS
JACKSON        CLOUDY    53  46  77 S5        29.96R
LAMBERTVILLE   LGT RAIN  55  49  80 CALM      29.97F
LANSING        CLOUDY    58  45  62 S9        29.97R
LAPEER         CLOUDY    57  44  61 S10       29.96S
MASON          CLOUDY    56  49  76 S3        29.96R
MONROE         CLOUDY    56  51  84 S3        29.98R
MT. CLEMENS    MOCLDY    57  50  76 S7        29.96R
PONTIAC        CLOUDY    57  48  72 SW7       29.96R
PORT HOPE        N/A     42  38  85 N18G25    29.98R
PORT HURON     CLOUDY    55  46  71 S6        29.97S
TRI CITIES     CLOUDY    57  46  66 N6        29.97R
MIDLAND        CLOUDY    56  42  58 CALM      29.95R
TROY           CLOUDY    58  47  67 S6        29.99R
SAGINAW HB     CLOUDY    59  41  51 S5        29.96R
$$
MIZ043>046-050>051-056>058-064>065-071>073-077>080-290400-
SOUTHWEST LOWER MICHIGAN

CITY           SKY/WX    TMP DP  RH WIND       PRES   REMARKS
BATTLE CREEK   MOCLDY    54  48  80 S5        29.97R
BENTON HARBOR  CLOUDY    51  46  83 CALM      29.96R
BIG RAPIDS     LGT RAIN  45  38  76 N7        29.99R
COLDWATER      MOCLDY    54  47  76 CALM      29.97R
FREMONT        CLOUDY    47  35  62 N10       30.00R
HOLLAND        CLOUDY    55  44  66 VRB6      29.98R
GRAND RAPIDS   CLOUDY    54  45  71 N8        29.96R
IONIA          FAIR      54  45  72 CALM      29.94S
KALAMAZOO      CLOUDY    56  46  69 SW6       29.97R
LUDINGTON      LGT RAIN  42  40  91 CALM      30.04R
MARSHALL       MOCLDY    54  47  77 CALM      29.97R
MOUNT PLEASANT CLOUDY    55  42  62 NW5       29.96R
MUSKEGON       CLOUDY    51  36  56 N9        30.00R
SOUTH HAVEN    CLOUDY    55  48  77 CALM      29.96R
$$
MIZ016>042-290400-
NORTHERN LOWER MICHIGAN

CITY           SKY/WX    TMP DP  RH WIND       PRES   REMARKS
ALPENA         CLOUDY    41  34  76 NW5       30.03R
BEAVER ISLAND  MOCLDY    38  34  84 CALM      30.06R
BELLAIRE       CLOUDY    42  31  66 CALM      30.05R
CADILLAC       LGT RAIN  41  38  87 N5        30.01R
CHARLEVOIX     CLOUDY    40  33  75 W6        30.07R
FRANKFORT      DRIZZLE   43  36  75 CALM      30.05R
GAYLORD        CLOUDY    42  27  55 VRB3      30.02R
GRAYLING       LGT RAIN  41  32  71 NW5       30.03R
HARBOR SPRINGS CLOUDY    37  33  82 CALM      30.04R
HOUGHTON LAKE  LGT RAIN  43  36  76 N9        30.01R
MANISTEE       LGT RAIN  43  41  93 CALM      30.04R
OSCODA         MIX PCPN  41  34  75 NE6       29.99R
PELLSTON       CLOUDY    39  28  64 W5        30.04R
ROGERS CITY    CLOUDY    40  30  65 NW5       30.04R
TRAVERSE CITY  CLOUDY    44  33  65 NE6       30.03R
$$
MIZ007>008-015-290400-
EASTERN UPPER MICHIGAN

CITY           SKY/WX    TMP DP  RH WIND       PRES   REMARKS
KINROSS        CLOUDY    36  27  69 W6        30.01R WCI  31
MACKINAC ISLAN CLOUDY    38  33  82 NW5       30.03R WCI  34
NEWBERRY       CLOUDY    36  28  72 W5        30.01R WCI  32
S. S. MARIE    CLOUDY    38  28  67 W8        30.00R WCI  32
MUNISING         N/A     38  30  73 NW13G23   30.06R WCI  30
$$
MIZ004>006-011>014-085-290400-
CENTRAL UPPER MICHIGAN

CITY           SKY/WX    TMP DP  RH WIND       PRES   REMARKS
MANISTIQUE     CLOUDY    37  30  78 CALM      30.04R
ESCANABA       CLOUDY    40  30  67 W3        30.07R
MENOMINEE      MOCLDY    44  30  57 N8        30.07R
SAWYER-GWINN   CLOUDY    35  26  69 N12G20    30.06R WCI  27
$$
MIZ001>003-009>011-084-290400-
WESTERN UPPER MICHIGAN

CITY           SKY/WX    TMP DP  RH WIND       PRES   REMARKS
IRON MOUNTAIN  CLOUDY    39  25  57 W5        30.05R
HOUGHTON       CLOUDY    34  26  72 NW10      30.05R WCI  26
COPPER HARBOR    N/A     36  28  73 N12       30.05R WCI  28
IRONWOOD       CLEAR     30  27  88 CALM      30.11R
$$

ABBREVIATIONS USED IN REMARKS
   TC - TEMPERATURE IN CELSIUS
  WCI - WIND CHILL INDEX
   HX - HEAT INDEX
  VSB - VISIBILITY





USA.gov is the U.S. government's official web portal to all federal, state and local government web resources and services.